This demonstration page uses our WeatherBlox Daily Observations layout. Learn more.

40.92945, -100.16068

Hourly Observations for August 26, 2016

Temp ( °F °C ) Dew Point ( °F °C ) Humidity (%) Winds ( mph kmh ) Pressure ( in mb ) Visibility ( mi km ) Precip ( " mm )
12:15 am 00:15 Clear 59 14.9 55 12.5 86 86 ENE 5 7 30.18 1022 10 16.09344 0 0
12:35 am 00:35 Clear 59 15 55 12.8 87 87 E 3 6 30.15 1021 10 16.09344 0 0
12:55 am 00:55 Clear 58 14.5 54 12.1 86 86 Calm 30.18 1022 10 16.09344 0 0
1:15 am 01:15 Clear 58 14.5 55 12.7 89 89 Calm 30.18 1022 10 16.09344 0 0
1:35 am 01:35 Clear 57 13.9 53 11.9 88 88 Calm 30.15 1021 10 16.09344 0 0
1:55 am 01:55 Clear 58 14.3 55 12.6 90 90 SE 3 6 30.15 1021 10 16.09344 0 0
2:15 am 02:15 Clear 57 13.7 54 12.2 91 91 Calm 30.15 1021 10 16.09344 0 0
2:35 am 02:35 Clear 56 13.3 53 11.9 91 91 Calm 30.15 1021 10 16.09344 0 0
2:55 am 02:55 Clear 55 13 53 11.7 92 92 Calm 30.15 1021 10 16.09344 0 0
3:15 am 03:15 Clear 55 12.5 53 11.4 93 93 NNE 3 6 30.15 1021 10 16.09344 0 0
3:35 am 03:35 Clear 55 12.6 53 11.6 94 94 Calm 30.15 1021 10 16.09344 0 0
3:55 am 03:55 Clear 55 12.7 53 11.8 94 94 Calm 30.15 1021 10 16.09344 0 0
4:15 am 04:15 Clear 54 12.2 52 11.2 94 94 Calm 30.15 1021 7 11.265408 0 0
4:35 am 04:35 Clear with Mist and Fog 54 12.1 52 11.2 94 94 Calm 30.15 1021 5 8.04672 0 0
4:55 am 04:55 Clear 54 12 52 11.2 95 95 Calm 30.15 1021 7 11.265408 0 0
5:15 am 05:15 Clear 54 12.2 53 11.4 95 95 Calm 30.15 1021 7 11.265408 0 0
5:35 am 05:35 Clear 53 11.9 52 11.1 95 95 Calm 30.15 1021 7 11.265408 0 0
5:55 am 05:55 Clear 53 11.7 52 10.9 95 95 Calm 30.15 1021 10 16.09344 0 0
6:15 am 06:15 Partly Cloudy 52 11.3 51 10.3 94 94 Calm 30.18 1022 10 16.09344 0 0
6:35 am 06:35 Partly Cloudy 52 11.3 51 10.4 94 94 Calm 30.18 1022 7 11.265408 0 0
6:55 am 06:55 Partly Cloudy 53 11.5 51 10.6 94 94 Calm 30.15 1021 10 16.09344 0 0
7:15 am 07:15 Partly Cloudy 52 11 50 10.2 95 95 WNW 3 6 30.18 1022 7 11.265408 0 0
7:35 am 07:35 Mostly Cloudy 53 11.8 52 11 95 95 Calm 30.15 1021 7 11.265408 0 0
7:55 am 07:55 Cloudy 55 12.6 53 11.9 96 96 Calm 30.15 1021 7 11.265408 0 0
8:15 am 08:15 Cloudy with Mist and Fog 56 13.3 55 12.5 95 95 Calm 30.15 1021 5 8.04672 0 0
8:35 am 08:35 Cloudy 57 14 55 13 94 94 Calm 30.15 1021 7 11.265408 0 0
8:55 am 08:55 Cloudy 59 15 56 13.3 90 90 E 3 6 30.12 1020 10 16.09344 0 0
9:15 am 09:15 Cloudy 61 15.9 56 13.5 86 86 SE 3 6 30.12 1020 10 16.09344 0 0
9:35 am 09:35 Cloudy 62 16.6 56 13.4 82 82 ESE 3 6 30.12 1020 10 16.09344 0 0
9:55 am 09:55 Cloudy 63 17 56 13.4 79 79 ESE 5 7 30.12 1020 10 16.09344 0 0
10:15 am 10:15 Cloudy 64 17.5 56 13.5 78 78 ESE 5 7 30.12 1020 10 16.09344 0 0
10:35 am 10:35 Cloudy 64 17.8 57 13.7 77 77 E 5 7 30.12 1020 10 16.09344 0 0
10:55 am 10:55 Mostly Cloudy 65 18.5 57 14 75 75 ESE 7 11 30.06 1018 10 16.09344 0 0
11:15 am 11:15 Sunny 66 19.1 58 14.4 74 74 E 7 11 30.06 1018 10 16.09344 0 0
11:35 am 11:35 Sunny 67 19.6 58 14.2 71 71 ESE 7 11 30.06 1018 10 16.09344 0 0
11:55 am 11:55 Partly Cloudy 68 20.2 58 14.4 69 69 SE 8 13 30.06 1018 10 16.09344 0 0
12:15 pm 12:15 Partly Cloudy 69 20.5 58 14.5 69 69 ESE 9 15 30.03 1017 10 16.09344 0 0
12:35 pm 12:35 Partly Cloudy 69 20.7 57 13.8 65 65 ESE 10 17 30.03 1017 10 16.09344 0 0
12:55 pm 12:55 Partly Cloudy 70 21 56 13.1 61 61 ESE 13 20 30 1016 10 16.09344 0 0
1:15 pm 13:15 Partly Cloudy 70 21.3 56 13.1 60 60 ESE 8 13 30 1016 10 16.09344 0 0
1:35 pm 13:35 Partly Cloudy 71 21.5 54 12.3 56 56 E 8 13 30 1016 10 16.09344 0 0
1:55 pm 13:55 Sunny 71 21.6 55 12.6 57 57 E 7 11 30 1016 10 16.09344 0 0
2:15 pm 14:15 Sunny 71 21.9 52 11 50 50 ESE 8 13 30 1016 10 16.09344 0 0
2:35 pm 14:35 Sunny 72 22.2 53 11.9 52 52 ESE 10 17 29.97 1015 10 16.09344 0 0
2:55 pm 14:55 Sunny 73 22.6 52 11.1 48 48 ESE 9 15 29.97 1015 10 16.09344 0 0
3:15 pm 15:15 Sunny 73 22.9 54 12.1 51 51 ESE 12 19 29.97 1015 10 16.09344 0 0
3:35 pm 15:35 Partly Cloudy 74 23.1 55 12.5 51 51 E 9 15 29.94 1014 10 16.09344 0 0
3:55 pm 15:55 Mostly Cloudy 73 23 56 13.2 54 54 ESE 10 17 29.94 1014 10 16.09344 0 0
4:15 pm 16:15 Cloudy 73 22.5 56 13.3 56 56 SE 10 17 29.94 1014 10 16.09344 0 0
4:35 pm 16:35 Cloudy 72 22.3 57 13.9 59 59 ESE 9 15 29.94 1014 10 16.09344 0 0
4:55 pm 16:55 Cloudy 72 22.2 57 14 60 60 E 9 15 29.94 1014 10 16.09344 0 0
5:15 pm 17:15 Cloudy 72 22 57 14 61 61 ESE 7 11 29.94 1014 10 16.09344 0 0
5:35 pm 17:35 Partly Cloudy 71 21.7 57 14.1 62 62 ESE 7 11 29.94 1014 10 16.09344 0 0
5:55 pm 17:55 Mostly Cloudy 71 21.6 58 14.5 64 64 E 7 11 29.94 1014 10 16.09344 0 0
6:15 pm 18:15 Mostly Cloudy with Rain 69 20.5 59 15.2 72 72 E 7 11 29.94 1014 10 16.09344 0 0
6:35 pm 18:35 Mostly Cloudy with Light Rain 69 20.5 61 16 76 76 NE 3 6 29.94 1014 10 16.09344 0 0
6:55 pm 18:55 Mostly Cloudy with Light Rain 67 19.6 62 16.9 85 85 NNE 5 7 29.97 1015 10 16.09344 0 0
7:15 pm 19:15 Partly Cloudy with Light Drizzle 67 19.6 62 16.8 84 84 Calm 29.97 1015 10 16.09344 0 0
7:35 pm 19:35 Mostly Cloudy 67 19.5 62 16.9 85 85 Calm 29.97 1015 10 16.09344 0 0
7:55 pm 19:55 Cloudy 67 19.2 63 17.2 88 88 SSE 3 6 29.97 1015 10 16.09344 0 0
8:15 pm 20:15 Cloudy with Rain 67 19.2 63 17 87 87 SW 3 6 29.97 1015 10 16.09344 0 0
8:35 pm 20:35 Cloudy with Light Drizzle 65 18.6 63 17.2 92 92 S 10 17 29.97 1015 10 16.09344 0 0
8:55 pm 20:55 Mostly Cloudy 66 18.7 62 16.6 88 88 S 8 13 29.97 1015 10 16.09344 0 0
9:15 pm 21:15 Mostly Cloudy with Light Rain 66 18.8 61 15.9 83 83 ESE 7 11 29.97 1015 10 16.09344 0 0
9:35 pm 21:35 Cloudy with Light Rain 66 18.9 60 15.5 81 81 E 7 11 29.97 1015 10 16.09344 0.02 0.508
9:55 pm 21:55 Cloudy with Light Rain 65 18.6 60 15.7 83 83 SSE 12 19 29.97 1015 10 16.09344 0.04 1.016
10:15 pm 22:15 Cloudy with Light Rain 64 18 60 15.8 87 87 SE 15 24 29.97 1015 10 16.09344 0.02 0.508
10:35 pm 22:35 Cloudy with Light Rain 64 18 61 16 88 88 SE 20 31 29.91 1013 10 16.09344 0.03 0.762
10:55 pm 22:55 Mostly Cloudy 66 19.1 57 13.9 72 72 W 12 19 29.97 1015 10 16.09344 0.03 0.762
11:15 pm 23:15 Partly Cloudy 63 17.4 57 14 81 81 W 6 9 29.97 1015 10 16.09344 0 0
11:35 pm 23:35 Clear 61 16.3 57 14 86 86 WNW 7 11 30 1016 10 16.09344 0 0
11:55 pm 23:55 Clear 60 15.8 57 13.7 87 87 W 6 9 30 1016 10 16.09344 0 0

Powered by AerisWeather